Lanai City, HI

12:45 AM HST on May 29, 2017 (GMT -1000)
Lanai City

Weather History for PHNY - January, 2014

Change the Weather History Date:

Monday, January 27, 2014

  Actual Average Record
Temperature  
Mean Temperature 70 °F -  
Max Temperature 77 °F 76 °F 81 °F (2011)
Min Temperature 63 °F 57 °F 53 °F (1980)
Cooling Degree Days 5    
Growing Degree Days 20 (Base 50)    
Moisture  
Dew Point 66 °F    
Average Humidity 91    
Maximum Humidity 100    
Minimum Humidity 69    
Precipitation  
Precipitation 0.00 in - - ()
Sea Level Pressure  
Sea Level Pressure 29.95 in    
Wind  
Wind Speed 6 mph (NE)    
Max Wind Speed 25 mph    
Max Gust Speed 39 mph    
Visibility 8 miles    
Events Rain    
Averages and records for this station are not official NWS values.
T = Trace of Precipitation, MM = Missing Value Source: NWS Daily Summary

Daily Weather History Graph

Daily Weather History Graph

Search for Another Location

Airport or City:

Trip Planner

Search our weather history database for the weather conditions in past years. The results will help you decide how hot, cold, wet, or windy it might be!

Date:

Astronomy

Jan. 27, 2014 Rise Set
Actual Time 7:05 AM HST 6:15 PM HST
Civil Twilight 6:42 AM HST 6:39 PM HST
Nautical Twilight 6:15 AM HST 7:05 PM HST
Astronomical Twilight 5:49 AM HST 7:32 PM HST
Moon 3:53 AM HST (1/27) 3:18 PM HST (1/27)
Length of Visible Light 11h 56m
Length of Day
11h 10m
Waning Crescent, 13% of the Moon is Illuminated
Jan 27
Waning Crescent
Jan 30
New
Feb 6
First Quarter
Feb 14
Full
Feb 22
Last Quarter

Hourly Weather History & Observations

Time (HST) Temp. Dew Point Humidity Pressure Visibility Wind Dir Wind Speed Gust Speed Precip Events Conditions
12:46 AM 66.2 °F 66.2 °F 100% 29.95 in 6.0 mi East 5.8 mph - 0.00 in Rain Light Rain
12:56 AM 65.8 °F 65.8 °F 100% 29.90 in 10.0 mi East 6.9 mph - 0.00 in Rain Light Rain
1:56 AM 65.8 °F 65.8 °F 100% 29.89 in 10.0 mi East 6.9 mph - 0.00 in   Overcast
2:56 AM 65.8 °F 65.8 °F 100% 29.88 in 10.0 mi East 8.1 mph - N/A   Overcast
3:56 AM 65.8 °F 65.8 °F 100% 29.88 in 4.0 mi East 5.8 mph - 0.00 in Rain Light Rain
4:15 AM 66.2 °F 66.2 °F 100% 29.93 in 7.0 mi ESE 4.6 mph - 0.00 in Rain Light Rain
4:56 AM 66.2 °F 66.2 °F 100% 29.93 in 5.0 mi SE 6.9 mph - N/A   Overcast
5:22 AM 66.2 °F 66.2 °F 100% 29.94 in 6.0 mi SE 4.6 mph - N/A   Overcast
5:41 AM 66.2 °F 66.2 °F 100% 29.95 in 2.5 mi Calm Calm - N/A   Overcast
5:44 AM 66.2 °F 66.2 °F 100% 29.95 in 1.2 mi Calm Calm - N/A   Overcast
5:56 AM 66.9 °F 66.9 °F 100% 29.90 in 2.0 mi Calm Calm - 0.00 in Rain Light Rain
6:08 AM 66.2 °F 66.2 °F 100% 29.95 in 3.0 mi Calm Calm - 0.00 in Rain Light Rain
6:56 AM 64.9 °F 64.9 °F 100% 29.93 in 8.0 mi NE 6.9 mph - 0.00 in Rain Light Rain
7:18 AM 64.4 °F 64.4 °F 100% 29.98 in 10.0 mi NNE 6.9 mph - 0.00 in Rain Light Rain
7:35 AM 64.4 °F 64.4 °F 100% 29.98 in 10.0 mi NE 5.8 mph - 0.00 in Rain Light Rain
7:56 AM 66.2 °F 66.2 °F 100% 29.99 in 5.0 mi Calm Calm - N/A Rain Light Rain
8:08 AM 66.2 °F 66.2 °F 100% 29.99 in 2.5 mi North 4.6 mph - 0.00 in Rain Light Rain
8:11 AM 66.2 °F 66.2 °F 100% 29.99 in 3.0 mi NNE 5.8 mph - 0.00 in Rain Light Rain
8:22 AM 66.2 °F 66.2 °F 100% 30.00 in 10.0 mi NE 5.8 mph - 0.00 in Rain Light Rain
8:56 AM 66.9 °F 66.9 °F 100% 29.95 in 10.0 mi NE 6.9 mph - 0.00 in   Overcast
9:56 AM 70.9 °F 68.9 °F 93% 29.97 in 10.0 mi WSW 3.5 mph - 0.00 in   Overcast
10:03 AM 69.8 °F 69.8 °F 100% 30.02 in 10.0 mi West 3.5 mph - N/A   Overcast
10:56 AM 73.4 °F 69.8 °F 88% 30.02 in 10.0 mi West 5.8 mph - N/A   Overcast
11:56 AM 73.9 °F 66.9 °F 79% 29.95 in 10.0 mi Calm Calm - N/A   Overcast
12:56 PM 74.8 °F 68.0 °F 79% 29.92 in 10.0 mi West 3.5 mph - N/A   Overcast
12:59 PM 75.2 °F 66.2 °F 73% 29.98 in 10.0 mi West 5.8 mph - N/A   Overcast
1:27 PM 75.2 °F 66.2 °F 73% 29.96 in 10.0 mi WSW 4.6 mph - N/A   Overcast
1:38 PM 75.2 °F 66.2 °F 73% 29.96 in 10.0 mi Calm Calm - N/A   Overcast
1:43 PM 75.2 °F 68.0 °F 78% 29.96 in 10.0 mi NW 3.5 mph - N/A   Overcast
1:56 PM 77.0 °F 66.2 °F 69% 29.95 in 10.0 mi West 4.6 mph - N/A   Overcast
2:17 PM 75.2 °F 66.2 °F 73% 29.95 in 10.0 mi WNW 4.6 mph - N/A   Overcast
2:30 PM 75.2 °F 66.2 °F 73% 29.95 in 10.0 mi West 5.8 mph - N/A   Overcast
2:56 PM 73.9 °F 66.9 °F 79% 29.89 in 10.0 mi West 5.8 mph - N/A   Overcast
3:37 PM 71.6 °F 64.4 °F 78% 29.95 in 10.0 mi North 3.5 mph - N/A   Overcast
3:56 PM 72.9 °F 64.9 °F 76% 29.90 in 10.0 mi NNE 5.8 mph - N/A   Overcast
4:18 PM 71.6 °F 64.4 °F 78% 29.95 in 10.0 mi NE 10.4 mph - N/A   Mostly Cloudy
4:56 PM 68.0 °F 64.9 °F 90% 29.91 in 10.0 mi NE 12.7 mph - 0.00 in Rain Light Rain
5:56 PM 66.9 °F 64.9 °F 93% 29.93 in 10.0 mi NE 16.1 mph - 0.00 in   Overcast
6:07 PM 66.2 °F 66.2 °F 100% 29.98 in 10.0 mi ENE 13.8 mph - N/A   Overcast
6:23 PM 66.2 °F 66.2 °F 100% 29.98 in 10.0 mi ENE 10.4 mph - N/A   Overcast
6:56 PM 64.9 °F 63.9 °F 96% 29.95 in 10.0 mi NNE 21.9 mph 27.6 mph N/A   Mostly Cloudy
7:56 PM 64.9 °F 63.0 °F 93% 29.97 in 10.0 mi NE 20.7 mph 31.1 mph N/A   Clear
8:56 PM 63.9 °F 61.9 °F 93% 29.99 in 10.0 mi NE 25.3 mph 39.1 mph N/A   Clear
9:56 PM 63.9 °F 59.9 °F 87% 29.99 in 10.0 mi NE 20.7 mph 33.4 mph N/A   Scattered Clouds
10:56 PM 64.9 °F 59.9 °F 84% 30.00 in 10.0 mi NE 18.4 mph 28.8 mph N/A   Overcast
11:56 PM 64.9 °F 61.0 °F 87% 29.99 in 10.0 mi NE 19.6 mph 28.8 mph N/A   Clear